Location: Shenandoah County Park
(38.9356°N, 78.4524°W)
Time: 15:46:53
(UTC-04:00)

CAS-4B - Pass Details

Date: 26 April 2024
Orbit: 476 x 492 km, 43.0° (Epoch: 20 May)

Event Time Altitude Azimuth Distance (km) Brightness Sun altitude
Exits shadow 05:32:29 - 290° (WNW) 2,103 ? -9.6°
Reaches altitude 10° 05:33:34 10° 290° (WNW) 1,665 ? -9.4°
Maximum altitude 05:37:22 85° 204° (SSW) 493 ? -8.8°
Drops below altitude 10° 05:41:11 10° 114° (ESE) 1,674 ? -8.1°
Sets 05:43:23 0° 114° (ESE) 2,557 ? -7.7°
